Time,TemperatureF,DewpointF,PressureIn,WindDirection,WindDirectionDegrees,WindSpeedMPH,WindSpeedGustMPH,Humidity,HourlyPrecipIn,Conditions,Clouds,dailyrainin,SoftwareType,DateUTC
2013-06-26 00:00:00,75.8,73.6,30.01,SW,235,1.0,1.0,93,0.00,,,0.01,Wunderground v.1.15,2013-06-26 04:00:00,
2013-06-26 00:02:00,75.8,73.6,30.01,South,181,0.0,9.0,93,0.00,,,0.00,Wunderground v.1.15,2013-06-26 04:02:00,
2013-06-26 00:04:00,75.7,73.5,30.01,SSW,207,0.0,9.0,93,0.00,,,0.00,Wunderground v.1.15,2013-06-26 04:04:00,
2013-06-26 00:08:00,75.7,73.5,30.00,SW,217,0.0,9.0,93,0.00,,,0.00,Wunderground v.1.15,2013-06-26 04:08:00,
2013-06-26 00:10:00,75.7,73.5,30.00,SW,232,1.0,1.0,93,0.00,,,0.00,Wunderground v.1.15,2013-06-26 04:10:00,
2013-06-26 00:12:00,75.7,73.5,30.00,SSW,202,1.0,9.0,93,0.00,,,0.00,Wunderground v.1.15,2013-06-26 04:12:00,
2013-06-26 00:14:00,75.7,73.5,30.00,SW,225,1.0,9.0,93,0.00,,,0.00,Wunderground v.1.15,2013-06-26 04:14:00,
2013-06-26 00:16:00,75.7,73.5,30.00,SW,218,1.0,9.0,93,0.00,,,0.00,Wunderground v.1.15,2013-06-26 04:16:00,
2013-06-26 00:18:00,75.7,73.5,30.00,SW,215,1.0,9.0,93,0.00,,,0.00,Wunderground v.1.15,2013-06-26 04:18:00,
2013-06-26 00:24:00,75.7,73.5,30.00,WSW,250,1.0,9.0,93,0.00,,,0.00,Wunderground v.1.15,2013-06-26 04:24:00,
2013-06-26 00:26:00,75.7,73.5,30.00,SSW,209,1.0,9.0,93,0.00,,,0.00,Wunderground v.1.15,2013-06-26 04:26:00,
2013-06-26 00:28:00,75.7,73.5,30.00,SSW,209,1.0,9.0,93,0.00,,,0.00,Wunderground v.1.15,2013-06-26 04:28:00,
2013-06-26 00:32:00,75.7,73.5,30.00,SW,219,1.0,9.0,93,0.00,,,0.00,Wunderground v.1.15,2013-06-26 04:32:00,
2013-06-26 00:34:00,75.6,73.4,30.00,SSW,206,1.0,9.0,93,0.00,,,0.00,Wunderground v.1.15,2013-06-26 04:34:00,
2013-06-26 00:36:00,75.6,73.4,30.00,SSW,213,2.0,9.0,93,0.00,,,0.00,Wunderground v.1.15,2013-06-26 04:36:00,
2013-06-26 00:40:00,75.6,73.4,30.00,SW,218,2.0,9.0,93,0.00,,,0.00,Wunderground v.1.15,2013-06-26 04:40:00,
2013-06-26 00:44:00,75.6,73.4,30.00,SSW,194,1.0,9.0,93,0.00,,,0.00,Wunderground v.1.15,2013-06-26 04:44:00,
2013-06-26 00:46:00,75.6,73.4,30.00,SW,221,1.0,9.0,93,0.00,,,0.00,Wunderground v.1.15,2013-06-26 04:46:00,
2013-06-26 00:48:00,75.6,73.4,30.00,SW,235,1.0,9.0,93,0.00,,,0.00,Wunderground v.1.15,2013-06-26 04:48:00,
2013-06-26 00:52:00,75.5,73.3,30.01,SW,228,0.0,9.0,93,0.00,,,0.00,Wunderground v.1.15,2013-06-26 04:52:00,
2013-06-26 00:54:00,75.4,73.2,30.01,West,259,1.0,9.0,93,0.00,,,0.00,Wunderground v.1.15,2013-06-26 04:54:00,
2013-06-26 00:56:00,75.3,73.1,30.01,West,259,0.0,9.0,93,0.00,,,0.00,Wunderground v.1.15,2013-06-26 04:56:00,
2013-06-26 01:00:00,75.2,73.4,30.01,WSW,245,0.0,9.0,94,0.00,,,0.00,Wunderground v.1.15,2013-06-26 05:00:00,
2013-06-26 01:02:00,75.2,73.4,30.01,WSW,245,0.0,9.0,94,0.00,,,0.00,Wunderground v.1.15,2013-06-26 05:02:00,
2013-06-26 01:04:00,75.2,73.4,30.01,WNW,299,0.0,9.0,94,0.00,,,0.00,Wunderground v.1.15,2013-06-26 05:04:00,
2013-06-26 01:06:00,75.2,73.4,30.01,WSW,251,0.0,9.0,94,0.00,,,0.00,Wunderground v.1.15,2013-06-26 05:06:00,
2013-06-26 01:10:00,75.2,73.4,30.01,WNW,300,0.0,9.0,94,0.00,,,0.00,Wunderground v.1.15,2013-06-26 05:10:00,
2013-06-26 01:12:00,75.1,72.9,30.01,WNW,300,0.0,9.0,93,0.00,,,0.00,Wunderground v.1.15,2013-06-26 05:12:00,
2013-06-26 01:14:00,75.1,73.3,30.01,WNW,300,0.0,9.0,94,0.00,,,0.00,Wunderground v.1.15,2013-06-26 05:14:00,
2013-06-26 01:16:00,75.1,73.3,30.01,WNW,300,0.0,9.0,94,0.00,,,0.00,Wunderground v.1.15,2013-06-26 05:16:00,
2013-06-26 01:20:00,75.0,73.2,30.01,SW,235,0.0,9.0,94,0.00,,,0.00,Wunderground v.1.15,2013-06-26 05:20:00,
2013-06-26 01:22:00,74.9,73.1,30.01,WSW,238,0.0,9.0,94,0.00,,,0.00,Wunderground v.1.15,2013-06-26 05:22:00,
2013-06-26 01:24:00,74.9,73.1,30.01,WSW,248,0.0,9.0,94,0.00,,,0.00,Wunderground v.1.15,2013-06-26 05:24:00,
2013-06-26 01:30:00,74.9,73.1,30.01,West,269,0.0,9.0,94,0.00,,,0.00,Wunderground v.1.15,2013-06-26 05:30:00,
2013-06-26 01:32:00,74.9,73.1,30.01,WSW,253,0.0,9.0,94,0.00,,,0.00,Wunderground v.1.15,2013-06-26 05:32:00,
2013-06-26 01:34:00,74.9,73.1,30.01,WSW,258,0.0,9.0,94,0.00,,,0.00,Wunderground v.1.15,2013-06-26 05:34:00,
2013-06-26 01:36:00,74.9,73.1,30.01,WSW,252,0.0,9.0,94,0.00,,,0.00,Wunderground v.1.15,2013-06-26 05:36:00,
2013-06-26 01:38:00,74.9,73.1,30.01,WSW,238,0.0,9.0,94,0.00,,,0.00,Wunderground v.1.15,2013-06-26 05:38:00,
2013-06-26 01:40:00,74.9,73.1,30.01,WSW,247,0.0,9.0,94,0.00,,,0.00,Wunderground v.1.15,2013-06-26 05:40:00,
2013-06-26 01:44:00,74.9,73.1,30.00,WSW,246,0.0,9.0,94,0.00,,,0.00,Wunderground v.1.15,2013-06-26 05:44:00,
2013-06-26 01:46:00,74.9,73.1,30.00,SW,235,1.0,9.0,94,0.00,,,0.00,Wunderground v.1.15,2013-06-26 05:46:00,
2013-06-26 01:48:00,74.9,73.1,30.01,West,269,0.0,9.0,94,0.00,,,0.00,Wunderground v.1.15,2013-06-26 05:48:00,
2013-06-26 01:52:00,74.9,73.1,30.01,WSW,257,0.0,9.0,94,0.00,,,0.00,Wunderground v.1.15,2013-06-26 05:52:00,
2013-06-26 01:54:00,74.9,73.1,30.00,WSW,257,0.0,9.0,94,0.00,,,0.00,Wunderground v.1.15,2013-06-26 05:54:00,
2013-06-26 01:56:00,74.9,73.1,30.00,WSW,244,0.0,9.0,94,0.00,,,0.00,Wunderground v.1.15,2013-06-26 05:56:00,
2013-06-26 02:00:00,74.9,73.1,30.00,WSW,248,0.0,9.0,94,0.00,,,0.00,Wunderground v.1.15,2013-06-26 06:00:00,
2013-06-26 02:02:00,74.9,72.7,30.00,SW,232,0.0,9.0,93,0.00,,,0.00,Wunderground v.1.15,2013-06-26 06:02:00,
2013-06-26 02:04:00,74.9,72.7,30.00,SW,234,0.0,9.0,93,0.00,,,0.00,Wunderground v.1.15,2013-06-26 06:04:00,
2013-06-26 02:08:00,74.9,72.7,30.00,WSW,244,1.0,9.0,93,0.00,,,0.00,Wunderground v.1.15,2013-06-26 06:08:00,
2013-06-26 02:10:00,74.8,72.6,30.00,West,266,1.0,9.0,93,0.00,,,0.00,Wunderground v.1.15,2013-06-26 06:10:00,
2013-06-26 02:16:00,74.9,72.7,30.00,WSW,245,1.0,9.0,93,0.00,,,0.00,Wunderground v.1.15,2013-06-26 06:16:00,
2013-06-26 02:18:00,74.8,72.6,30.00,WSW,238,1.0,9.0,93,0.00,,,0.00,Wunderground v.1.15,2013-06-26 06:18:00,
2013-06-26 02:20:00,74.8,73.0,30.00,West,259,1.0,9.0,94,0.00,,,0.00,Wunderground v.1.15,2013-06-26 06:20:00,
2013-06-26 02:26:00,74.6,72.8,30.00,WSW,254,1.0,9.0,94,0.00,,,0.00,Wunderground v.1.15,2013-06-26 06:26:00,
2013-06-26 02:30:00,74.6,72.8,29.99,WSW,244,1.0,1.0,94,0.00,,,0.00,Wunderground v.1.15,2013-06-26 06:30:00,
2013-06-26 02:32:00,74.6,72.8,29.99,WSW,239,1.0,9.0,94,0.00,,,0.00,Wunderground v.1.15,2013-06-26 06:32:00,
2013-06-26 02:36:00,74.5,72.7,30.00,SW,218,1.0,9.0,94,0.00,,,0.00,Wunderground v.1.15,2013-06-26 06:36:00,
2013-06-26 02:38:00,74.5,72.7,29.99,SW,229,0.0,9.0,94,0.00,,,0.00,Wunderground v.1.15,2013-06-26 06:38:00,
2013-06-26 02:40:00,74.5,72.7,29.99,WSW,246,0.0,9.0,94,0.00,,,0.00,Wunderground v.1.15,2013-06-26 06:40:00,
2013-06-26 02:42:00,74.4,72.6,29.99,West,271,1.0,9.0,94,0.00,,,0.00,Wunderground v.1.15,2013-06-26 06:42:00,
2013-06-26 02:44:00,74.4,72.6,29.99,WSW,244,1.0,9.0,94,0.00,,,0.00,Wunderground v.1.15,2013-06-26 06:44:00,
2013-06-26 02:48:00,74.4,72.6,29.99,WSW,245,1.0,9.0,94,0.00,,,0.00,Wunderground v.1.15,2013-06-26 06:48:00,
2013-06-26 02:50:00,74.4,72.6,29.99,WSW,238,1.0,9.0,94,0.00,,,0.00,Wunderground v.1.15,2013-06-26 06:50:00,
2013-06-26 02:54:00,74.3,72.5,29.99,SSW,212,1.0,9.0,94,0.00,,,0.00,Wunderground v.1.15,2013-06-26 06:54:00,
2013-06-26 02:56:00,74.3,72.5,29.99,West,269,1.0,9.0,94,0.00,,,0.00,Wunderground v.1.15,2013-06-26 06:56:00,
2013-06-26 03:00:00,74.3,72.5,29.99,West,281,1.0,9.0,94,0.00,,,0.00,Wunderground v.1.15,2013-06-26 07:00:00,
2013-06-26 03:02:00,74.3,72.5,29.99,SSW,202,1.0,9.0,94,0.00,,,0.00,Wunderground v.1.15,2013-06-26 07:02:00,
2013-06-26 03:06:00,74.3,72.5,29.99,WSW,244,1.0,9.0,94,0.00,,,0.00,Wunderground v.1.15,2013-06-26 07:06:00,
2013-06-26 03:08:00,74.2,72.4,29.99,West,265,1.0,9.0,94,0.00,,,0.00,Wunderground v.1.15,2013-06-26 07:08:00,
2013-06-26 03:12:00,74.1,72.3,29.99,West,264,1.0,9.0,94,0.00,,,0.00,Wunderground v.1.15,2013-06-26 07:12:00,
2013-06-26 03:14:00,74.1,72.3,29.99,NW,310,1.0,9.0,94,0.00,,,0.00,Wunderground v.1.15,2013-06-26 07:14:00,
2013-06-26 03:18:00,74.0,72.2,29.99,West,264,1.0,9.0,94,0.00,,,0.00,Wunderground v.1.15,2013-06-26 07:18:00,
2013-06-26 03:20:00,74.0,72.2,29.99,WSW,258,1.0,1.0,94,0.00,,,0.00,Wunderground v.1.15,2013-06-26 07:20:00,
2013-06-26 03:24:00,73.9,72.1,29.99,West,268,0.0,9.0,94,0.00,,,0.00,Wunderground v.1.15,2013-06-26 07:24:00,
2013-06-26 03:26:00,73.9,72.1,29.99,WNW,287,0.0,9.0,94,0.00,,,0.00,Wunderground v.1.15,2013-06-26 07:26:00,
2013-06-26 03:28:00,73.9,72.4,29.99,West,275,0.0,9.0,95,0.00,,,0.00,Wunderground v.1.15,2013-06-26 07:28:00,
2013-06-26 03:30:00,73.9,72.4,29.99,WSW,238,0.0,9.0,95,0.00,,,0.00,Wunderground v.1.15,2013-06-26 07:30:00,
2013-06-26 03:32:00,73.9,72.4,29.99,West,270,0.0,9.0,95,0.00,,,0.00,Wunderground v.1.15,2013-06-26 07:32:00,
2013-06-26 03:34:00,73.9,72.4,29.99,WSW,241,0.0,9.0,95,0.00,,,0.00,Wunderground v.1.15,2013-06-26 07:34:00,
2013-06-26 03:36:00,73.9,72.4,29.99,West,276,0.0,9.0,95,0.00,,,0.00,Wunderground v.1.15,2013-06-26 07:36:00,
2013-06-26 03:38:00,73.9,72.4,30.00,West,269,0.0,9.0,95,0.00,,,0.00,Wunderground v.1.15,2013-06-26 07:38:00,
2013-06-26 03:42:00,73.8,72.3,30.00,West,268,0.0,9.0,95,0.00,,,0.00,Wunderground v.1.15,2013-06-26 07:42:00,
2013-06-26 03:44:00,73.8,72.3,30.00,WSW,251,0.0,9.0,95,0.00,,,0.00,Wunderground v.1.15,2013-06-26 07:44:00,
2013-06-26 03:48:00,73.7,72.2,30.00,WSW,251,0.0,9.0,95,0.00,,,0.00,Wunderground v.1.15,2013-06-26 07:48:00,
2013-06-26 03:50:00,73.7,72.2,30.00,WSW,251,0.0,9.0,95,0.00,,,0.00,Wunderground v.1.15,2013-06-26 07:50:00,
2013-06-26 03:54:00,73.5,72.0,30.00,WSW,251,0.0,9.0,95,0.00,,,0.00,Wunderground v.1.15,2013-06-26 07:54:00,
2013-06-26 04:00:00,73.4,71.9,29.99,West,273,0.0,9.0,95,0.00,,,0.00,Wunderground v.1.15,2013-06-26 08:00:00,
2013-06-26 04:02:00,73.3,71.8,29.99,West,273,0.0,9.0,95,0.00,,,0.00,Wunderground v.1.15,2013-06-26 08:02:00,
2013-06-26 04:06:00,73.3,72.1,29.99,WNW,294,0.0,9.0,96,0.00,,,0.00,Wunderground v.1.15,2013-06-26 08:06:00,
2013-06-26 04:08:00,73.3,72.1,29.99,WNW,289,0.0,9.0,96,0.00,,,0.00,Wunderground v.1.15,2013-06-26 08:08:00,
2013-06-26 04:12:00,73.3,72.1,29.99,WSW,240,0.0,9.0,96,0.00,,,0.00,Wunderground v.1.15,2013-06-26 08:12:00,
2013-06-26 04:14:00,73.3,72.1,29.99,WSW,240,0.0,9.0,96,0.00,,,0.00,Wunderground v.1.15,2013-06-26 08:14:00,
2013-06-26 04:16:00,73.3,72.1,29.99,WNW,290,0.0,9.0,96,0.00,,,0.00,Wunderground v.1.15,2013-06-26 08:16:00,
2013-06-26 04:18:00,73.3,72.1,29.99,WSW,257,0.0,9.0,96,0.00,,,0.00,Wunderground v.1.15,2013-06-26 08:18:00,
2013-06-26 04:20:00,73.3,72.1,29.99,WSW,252,0.0,9.0,96,0.00,,,0.00,Wunderground v.1.15,2013-06-26 08:20:00,
2013-06-26 04:24:00,73.3,72.1,29.99,WSW,240,0.0,9.0,96,0.00,,,0.00,Wunderground v.1.15,2013-06-26 08:24:00,
2013-06-26 04:26:00,73.3,72.1,29.99,WSW,239,0.0,9.0,96,0.00,,,0.00,Wunderground v.1.15,2013-06-26 08:26:00,
2013-06-26 04:28:00,73.3,72.1,29.99,WNW,286,0.0,9.0,96,0.00,,,0.00,Wunderground v.1.15,2013-06-26 08:28:00,
2013-06-26 04:32:00,73.3,72.1,29.99,West,260,1.0,9.0,96,0.00,,,0.00,Wunderground v.1.15,2013-06-26 08:32:00,
2013-06-26 04:36:00,73.2,72.0,29.99,WNW,292,0.0,9.0,96,0.00,,,0.00,Wunderground v.1.15,2013-06-26 08:36:00,
2013-06-26 04:38:00,73.2,72.0,29.99,West,274,0.0,9.0,96,0.00,,,0.00,Wunderground v.1.15,2013-06-26 08:38:00,
2013-06-26 04:42:00,73.2,72.0,29.99,West,276,0.0,9.0,96,0.00,,,0.00,Wunderground v.1.15,2013-06-26 08:42:00,
2013-06-26 04:44:00,73.1,71.9,29.98,West,259,0.0,9.0,96,0.00,,,0.00,Wunderground v.1.15,2013-06-26 08:44:00,
2013-06-26 04:46:00,73.2,72.0,29.98,SW,236,1.0,9.0,96,0.00,,,0.00,Wunderground v.1.15,2013-06-26 08:46:00,
2013-06-26 04:50:00,73.2,72.0,29.98,WSW,252,1.0,1.0,96,0.00,,,0.00,Wunderground v.1.15,2013-06-26 08:50:00,
2013-06-26 04:52:00,73.2,72.0,29.98,SSW,196,1.0,9.0,96,0.00,,,0.00,Wunderground v.1.15,2013-06-26 08:52:00,
2013-06-26 04:56:00,73.2,72.0,29.98,WSW,246,1.0,9.0,96,0.00,,,0.00,Wunderground v.1.15,2013-06-26 08:56:00,
2013-06-26 04:58:00,73.1,71.9,29.99,West,273,1.0,9.0,96,0.00,,,0.00,Wunderground v.1.15,2013-06-26 08:58:00,
2013-06-26 05:02:00,73.1,71.9,29.99,WSW,245,1.0,2.0,96,0.00,,,0.00,Wunderground v.1.15,2013-06-26 09:02:00,
2013-06-26 05:04:00,73.1,71.9,29.99,West,278,1.0,9.0,96,0.00,,,0.00,Wunderground v.1.15,2013-06-26 09:04:00,
2013-06-26 05:08:00,73.1,71.9,29.99,West,269,1.0,9.0,96,0.00,,,0.00,Wunderground v.1.15,2013-06-26 09:08:00,
2013-06-26 05:12:00,73.1,71.9,29.99,West,273,0.0,9.0,96,0.00,,,0.00,Wunderground v.1.15,2013-06-26 09:12:00,
2013-06-26 05:14:00,73.0,71.8,29.99,WNW,288,0.0,9.0,96,0.00,,,0.00,Wunderground v.1.15,2013-06-26 09:14:00,
2013-06-26 05:20:00,73.0,71.8,29.99,WSW,238,0.0,9.0,96,0.00,,,0.00,Wunderground v.1.15,2013-06-26 09:20:00,
2013-06-26 05:24:00,73.0,71.8,29.99,West,272,0.0,9.0,96,0.00,,,0.00,Wunderground v.1.15,2013-06-26 09:24:00,
2013-06-26 05:26:00,73.0,71.8,29.99,SW,225,1.0,9.0,96,0.00,,,0.00,Wunderground v.1.15,2013-06-26 09:26:00,
2013-06-26 05:28:00,73.0,71.8,29.99,WNW,290,1.0,9.0,96,0.00,,,0.00,Wunderground v.1.15,2013-06-26 09:28:00,
2013-06-26 05:30:00,72.9,71.7,29.99,West,269,1.0,1.0,96,0.00,,,0.00,Wunderground v.1.15,2013-06-26 09:30:00,
2013-06-26 05:34:00,73.0,71.8,29.99,West,259,0.0,9.0,96,0.00,,,0.00,Wunderground v.1.15,2013-06-26 09:34:00,
2013-06-26 05:36:00,73.0,71.8,29.99,SW,236,0.0,9.0,96,0.00,,,0.00,Wunderground v.1.15,2013-06-26 09:36:00,
2013-06-26 05:38:00,73.0,71.8,29.99,WSW,242,0.0,9.0,96,0.00,,,0.00,Wunderground v.1.15,2013-06-26 09:38:00,
2013-06-26 05:42:00,73.0,71.8,29.99,West,275,0.0,9.0,96,0.00,,,0.00,Wunderground v.1.15,2013-06-26 09:42:00,
2013-06-26 05:44:00,73.0,71.8,29.99,WSW,247,0.0,9.0,96,0.00,,,0.00,Wunderground v.1.15,2013-06-26 09:44:00,
2013-06-26 05:46:00,73.0,71.8,29.99,WSW,239,0.0,9.0,96,0.00,,,0.00,Wunderground v.1.15,2013-06-26 09:46:00,
2013-06-26 05:48:00,73.0,71.8,29.99,WSW,240,0.0,9.0,96,0.00,,,0.00,Wunderground v.1.15,2013-06-26 09:48:00,
2013-06-26 05:50:00,73.0,71.8,30.00,WSW,240,0.0,9.0,96,0.00,,,0.00,Wunderground v.1.15,2013-06-26 09:50:00,
2013-06-26 05:56:00,73.0,71.8,30.00,NE,41,0.0,9.0,96,0.00,,,0.00,Wunderground v.1.15,2013-06-26 09:56:00,
2013-06-26 05:58:00,73.0,71.8,30.01,NNW,333,1.0,9.0,96,0.00,,,0.00,Wunderground v.1.15,2013-06-26 09:58:00,
2013-06-26 06:02:00,73.0,71.8,30.01,NE,42,2.0,3.0,96,0.00,,,0.00,Wunderground v.1.15,2013-06-26 10:02:00,
2013-06-26 06:04:00,73.0,71.8,30.01,North,5,2.0,9.0,96,0.00,,,0.00,Wunderground v.1.15,2013-06-26 10:04:00,
2013-06-26 06:06:00,73.0,71.5,30.01,North,355,2.0,9.0,95,0.00,,,0.00,Wunderground v.1.15,2013-06-26 10:06:00,
2013-06-26 06:08:00,72.9,71.1,30.01,ENE,58,1.0,9.0,94,0.00,,,0.00,Wunderground v.1.15,2013-06-26 10:08:00,
2013-06-26 06:12:00,72.9,70.8,30.01,NNE,22,1.0,9.0,93,0.00,,,0.00,Wunderground v.1.15,2013-06-26 10:12:00,
2013-06-26 06:14:00,72.8,70.0,30.01,East,83,0.0,9.0,91,0.00,,,0.01,Wunderground v.1.15,2013-06-26 10:14:00,
2013-06-26 06:16:00,72.7,69.3,30.01,NNW,345,1.0,9.0,89,0.00,,,0.01,Wunderground v.1.15,2013-06-26 10:16:00,
2013-06-26 06:18:00,72.6,68.8,30.01,NNW,338,1.0,9.0,88,0.00,,,0.01,Wunderground v.1.15,2013-06-26 10:18:00,
2013-06-26 06:22:00,72.3,68.5,30.01,North,355,1.0,9.0,88,0.09,,,0.02,Wunderground v.1.15,2013-06-26 10:22:00,
2013-06-26 06:24:00,72.1,69.0,30.01,North,350,1.0,9.0,90,0.09,,,0.02,Wunderground v.1.15,2013-06-26 10:24:00,
2013-06-26 06:26:00,71.8,68.7,30.01,NW,314,1.0,9.0,90,0.09,,,0.02,Wunderground v.1.15,2013-06-26 10:26:00,
2013-06-26 06:28:00,71.6,68.2,30.01,NNW,334,0.0,9.0,89,0.08,,,0.02,Wunderground v.1.15,2013-06-26 10:28:00,
2013-06-26 06:30:00,71.4,68.0,30.01,NNW,328,0.0,9.0,89,0.06,,,0.02,Wunderground v.1.15,2013-06-26 10:30:00,
2013-06-26 06:36:00,70.9,67.5,30.01,NNW,330,1.0,9.0,89,0.04,,,0.02,Wunderground v.1.15,2013-06-26 10:36:00,
2013-06-26 06:40:00,70.6,67.2,30.02,North,360,0.0,9.0,89,0.00,,,0.02,Wunderground v.1.15,2013-06-26 10:40:00,
2013-06-26 06:42:00,70.4,67.3,30.02,WNW,293,0.0,9.0,90,0.00,,,0.02,Wunderground v.1.15,2013-06-26 10:42:00,
2013-06-26 06:44:00,70.3,67.2,30.02,NW,313,0.0,9.0,90,0.00,,,0.02,Wunderground v.1.15,2013-06-26 10:44:00,
2013-06-26 06:46:00,70.2,67.1,30.02,NNE,19,0.0,9.0,90,0.00,,,0.02,Wunderground v.1.15,2013-06-26 10:46:00,
2013-06-26 06:48:00,70.1,67.0,30.02,North,355,0.0,9.0,90,0.00,,,0.02,Wunderground v.1.15,2013-06-26 10:48:00,
2013-06-26 06:50:00,70.1,67.0,30.02,NNW,340,0.0,9.0,90,0.00,,,0.02,Wunderground v.1.15,2013-06-26 10:50:00,
2013-06-26 06:54:00,69.9,66.8,30.03,NNE,23,0.0,9.0,90,0.00,,,0.02,Wunderground v.1.15,2013-06-26 10:54:00,
2013-06-26 06:56:00,69.8,66.7,30.03,NNE,26,0.0,9.0,90,0.00,,,0.02,Wunderground v.1.15,2013-06-26 10:56:00,
2013-06-26 06:58:00,69.8,67.1,30.03,NNE,16,0.0,9.0,91,0.00,,,0.02,Wunderground v.1.15,2013-06-26 10:58:00,
2013-06-26 07:02:00,69.6,66.9,30.03,NNE,16,0.0,9.0,91,0.00,,,0.02,Wunderground v.1.15,2013-06-26 11:02:00,
2013-06-26 07:06:00,69.4,66.7,30.03,NW,321,0.0,9.0,91,0.00,,,0.02,Wunderground v.1.15,2013-06-26 11:06:00,
2013-06-26 07:08:00,69.4,66.7,30.03,NNW,339,0.0,9.0,91,0.00,,,0.02,Wunderground v.1.15,2013-06-26 11:08:00,
2013-06-26 07:10:00,69.4,66.7,30.03,NNW,339,0.0,9.0,91,0.00,,,0.02,Wunderground v.1.15,2013-06-26 11:10:00,
2013-06-26 07:12:00,69.4,66.7,30.03,NNW,346,0.0,9.0,91,0.00,,,0.02,Wunderground v.1.15,2013-06-26 11:12:00,
2013-06-26 07:14:00,69.3,66.6,30.03,NNW,333,0.0,9.0,91,0.00,,,0.02,Wunderground v.1.15,2013-06-26 11:14:00,
2013-06-26 07:16:00,69.3,66.9,30.03,North,355,0.0,9.0,92,0.00,,,0.02,Wunderground v.1.15,2013-06-26 11:16:00,
2013-06-26 07:20:00,69.3,66.9,30.02,NNW,332,0.0,9.0,92,0.00,,,0.02,Wunderground v.1.15,2013-06-26 11:20:00,
2013-06-26 07:22:00,69.2,66.8,30.02,NNW,346,0.0,9.0,92,0.00,,,0.02,Wunderground v.1.15,2013-06-26 11:22:00,
2013-06-26 07:26:00,69.2,66.8,30.02,NNW,346,0.0,9.0,92,0.00,,,0.02,Wunderground v.1.15,2013-06-26 11:26:00,
2013-06-26 07:28:00,69.1,66.7,30.02,NNW,347,0.0,9.0,92,0.00,,,0.02,Wunderground v.1.15,2013-06-26 11:28:00,
2013-06-26 07:30:00,69.1,66.7,30.02,WSW,248,0.0,9.0,92,0.00,,,0.02,Wunderground v.1.15,2013-06-26 11:30:00,
2013-06-26 07:32:00,69.1,66.4,30.02,WSW,249,0.0,9.0,91,0.00,,,0.02,Wunderground v.1.15,2013-06-26 11:32:00,
2013-06-26 07:34:00,69.0,66.6,30.02,WSW,249,0.0,9.0,92,0.00,,,0.02,Wunderground v.1.15,2013-06-26 11:34:00,
2013-06-26 07:40:00,68.8,66.7,30.01,SW,230,0.0,9.0,93,0.00,,,0.02,Wunderground v.1.15,2013-06-26 11:40:00,
2013-06-26 07:42:00,68.8,66.7,30.01,SW,230,0.0,9.0,93,0.00,,,0.02,Wunderground v.1.15,2013-06-26 11:42:00,
2013-06-26 07:44:00,68.8,66.7,30.01,SW,230,0.0,9.0,93,0.00,,,0.02,Wunderground v.1.15,2013-06-26 11:44:00,
2013-06-26 07:46:00,68.7,66.9,30.00,SW,230,0.0,9.0,94,0.00,,,0.02,Wunderground v.1.15,2013-06-26 11:46:00,
2013-06-26 07:50:00,68.6,66.8,30.00,SW,229,0.0,9.0,94,0.00,,,0.02,Wunderground v.1.15,2013-06-26 11:50:00,
2013-06-26 07:54:00,68.5,66.7,29.99,SW,219,0.0,9.0,94,0.00,,,0.02,Wunderground v.1.15,2013-06-26 11:54:00,
2013-06-26 07:56:00,68.4,66.6,29.98,SW,228,1.0,9.0,94,0.00,,,0.03,Wunderground v.1.15,2013-06-26 11:56:00,
2013-06-26 08:00:00,68.2,66.7,29.98,SSW,213,2.0,9.0,95,0.00,,,0.03,Wunderground v.1.15,2013-06-26 12:00:00,
2013-06-26 08:02:00,68.1,66.6,29.98,SW,219,2.0,9.0,95,0.00,,,0.03,Wunderground v.1.15,2013-06-26 12:02:00,
2013-06-26 08:04:00,68.1,66.6,29.99,NNW,347,2.0,9.0,95,0.00,,,0.03,Wunderground v.1.15,2013-06-26 12:04:00,
2013-06-26 08:06:00,68.2,67.0,30.00,NNE,30,2.0,9.0,96,0.06,,,0.04,Wunderground v.1.15,2013-06-26 12:06:00,
2013-06-26 08:10:00,68.1,66.9,30.00,SSE,150,1.0,1.0,96,0.06,,,0.04,Wunderground v.1.15,2013-06-26 12:10:00,
2013-06-26 08:12:00,68.1,66.9,29.99,SW,229,1.0,9.0,96,0.06,,,0.04,Wunderground v.1.15,2013-06-26 12:12:00,
2013-06-26 08:18:00,68.0,67.1,29.99,SW,219,0.0,9.0,97,0.05,,,0.04,Wunderground v.1.15,2013-06-26 12:18:00,
2013-06-26 08:20:00,68.0,67.1,29.99,SW,221,0.0,9.0,97,0.04,,,0.04,Wunderground v.1.15,2013-06-26 12:20:00,
2013-06-26 08:24:00,68.1,67.2,30.00,SW,221,0.0,9.0,97,0.00,,,0.04,Wunderground v.1.15,2013-06-26 12:24:00,
2013-06-26 08:28:00,68.2,67.3,29.99,SW,221,0.0,9.0,97,0.00,,,0.04,Wunderground v.1.15,2013-06-26 12:28:00,
2013-06-26 08:30:00,68.3,67.4,29.99,SW,221,0.0,9.0,97,0.00,,,0.04,Wunderground v.1.15,2013-06-26 12:30:00,
2013-06-26 08:32:00,68.3,67.4,29.99,SW,221,0.0,9.0,97,0.00,,,0.04,Wunderground v.1.15,2013-06-26 12:32:00,
2013-06-26 08:34:00,68.4,67.5,29.99,WSW,254,0.0,9.0,97,0.00,,,0.04,Wunderground v.1.15,2013-06-26 12:34:00,
2013-06-26 08:38:00,68.5,67.6,29.99,SW,235,1.0,9.0,97,0.00,,,0.04,Wunderground v.1.15,2013-06-26 12:38:00,
2013-06-26 08:40:00,68.6,67.7,29.99,SW,234,1.0,9.0,97,0.00,,,0.04,Wunderground v.1.15,2013-06-26 12:40:00,
2013-06-26 08:42:00,68.6,67.7,29.98,SW,234,1.0,9.0,97,0.00,,,0.04,Wunderground v.1.15,2013-06-26 12:42:00,
2013-06-26 08:46:00,68.6,67.7,29.98,West,261,0.0,9.0,97,0.00,,,0.04,Wunderground v.1.15,2013-06-26 12:46:00,
2013-06-26 08:50:00,68.8,67.9,29.98,WSW,248,0.0,9.0,97,0.00,,,0.04,Wunderground v.1.15,2013-06-26 12:50:00,
2013-06-26 08:52:00,68.8,67.9,29.99,WSW,247,0.0,9.0,97,0.00,,,0.04,Wunderground v.1.15,2013-06-26 12:52:00,
2013-06-26 08:54:00,69.0,68.1,29.99,WSW,251,0.0,9.0,97,0.00,,,0.04,Wunderground v.1.15,2013-06-26 12:54:00,
2013-06-26 08:56:00,69.0,68.1,29.99,West,279,0.0,9.0,97,0.00,,,0.04,Wunderground v.1.15,2013-06-26 12:56:00,
2013-06-26 09:00:00,69.2,68.3,29.98,WNW,284,1.0,9.0,97,0.00,,,0.04,Wunderground v.1.15,2013-06-26 13:00:00,
2013-06-26 09:02:00,69.3,68.4,29.99,NW,306,1.0,9.0,97,0.00,,,0.04,Wunderground v.1.15,2013-06-26 13:02:00,
2013-06-26 09:04:00,69.4,68.5,29.99,WNW,290,1.0,9.0,97,0.00,,,0.04,Wunderground v.1.15,2013-06-26 13:04:00,
2013-06-26 09:06:00,69.5,68.3,29.99,WSW,258,1.0,9.0,96,0.00,,,0.04,Wunderground v.1.15,2013-06-26 13:06:00,
2013-06-26 09:08:00,69.7,68.8,29.99,WSW,240,1.0,9.0,97,0.00,,,0.04,Wunderground v.1.15,2013-06-26 13:08:00,
2013-06-26 09:10:00,69.9,69.0,29.99,WSW,257,1.0,9.0,97,0.00,,,0.04,Wunderground v.1.15,2013-06-26 13:10:00,
2013-06-26 09:12:00,70.1,68.9,29.99,SW,217,1.0,9.0,96,0.00,,,0.04,Wunderground v.1.15,2013-06-26 13:12:00,
2013-06-26 09:16:00,70.6,69.4,29.98,SW,225,2.0,9.0,96,0.00,,,0.04,Wunderground v.1.15,2013-06-26 13:16:00,
2013-06-26 09:20:00,71.0,69.5,29.99,South,189,3.0,9.0,95,0.00,,,0.04,Wunderground v.1.15,2013-06-26 13:20:00,
2013-06-26 09:22:00,71.0,69.2,29.98,WSW,257,4.0,9.0,94,0.00,,,0.04,Wunderground v.1.15,2013-06-26 13:22:00,
2013-06-26 09:24:00,71.2,69.7,29.99,WSW,244,4.0,11.0,95,0.00,,,0.04,Wunderground v.1.15,2013-06-26 13:24:00,
2013-06-26 09:26:00,71.1,69.3,29.99,SW,233,5.0,11.0,94,0.00,,,0.04,Wunderground v.1.15,2013-06-26 13:26:00,
2013-06-26 09:30:00,71.2,69.7,29.98,WSW,249,3.0,3.0,95,0.00,,,0.04,Wunderground v.1.15,2013-06-26 13:30:00,
2013-06-26 09:32:00,71.2,69.4,29.98,WSW,238,2.0,9.0,94,0.00,,,0.04,Wunderground v.1.15,2013-06-26 13:32:00,
2013-06-26 09:36:00,71.5,69.7,29.98,SW,215,1.0,9.0,94,0.00,,,0.04,Wunderground v.1.15,2013-06-26 13:36:00,
2013-06-26 09:38:00,71.6,69.8,29.98,SW,220,1.0,9.0,94,0.00,,,0.04,Wunderground v.1.15,2013-06-26 13:38:00,
2013-06-26 09:40:00,71.8,70.0,29.98,West,279,1.0,9.0,94,0.00,,,0.04,Wunderground v.1.15,2013-06-26 13:40:00,
2013-06-26 09:42:00,71.9,70.1,29.98,WSW,239,2.0,9.0,94,0.00,,,0.04,Wunderground v.1.15,2013-06-26 13:42:00,
2013-06-26 09:46:00,72.3,70.2,29.98,WSW,254,3.0,9.0,93,0.00,,,0.04,Wunderground v.1.15,2013-06-26 13:46:00,
2013-06-26 09:52:00,73.0,70.9,29.99,SW,232,4.0,9.0,93,0.00,,,0.04,Wunderground v.1.15,2013-06-26 13:52:00,
2013-06-26 09:54:00,73.3,71.2,29.99,WSW,247,3.0,9.0,93,0.00,,,0.04,Wunderground v.1.15,2013-06-26 13:54:00,
2013-06-26 09:56:00,73.6,71.4,29.99,West,268,3.0,9.0,93,0.00,,,0.04,Wunderground v.1.15,2013-06-26 13:56:00,
2013-06-26 09:58:00,73.9,71.1,29.99,WSW,245,2.0,9.0,91,0.00,,,0.04,Wunderground v.1.15,2013-06-26 13:58:00,
2013-06-26 10:02:00,74.1,71.3,29.99,SW,236,1.0,9.0,91,0.00,,,0.04,Wunderground v.1.15,2013-06-26 14:02:00,
2013-06-26 10:04:00,74.1,71.3,29.99,SSE,166,1.0,9.0,91,0.00,,,0.04,Wunderground v.1.15,2013-06-26 14:04:00,
2013-06-26 10:06:00,74.1,71.0,29.99,SW,228,2.0,9.0,90,0.00,,,0.04,Wunderground v.1.15,2013-06-26 14:06:00,
2013-06-26 10:12:00,74.0,70.9,29.99,SW,217,3.0,9.0,90,0.00,,,0.04,Wunderground v.1.15,2013-06-26 14:12:00,
2013-06-26 10:14:00,74.0,70.9,29.99,West,269,3.0,9.0,90,0.00,,,0.04,Wunderground v.1.15,2013-06-26 14:14:00,
2013-06-26 10:18:00,74.2,71.4,29.99,NW,323,2.0,9.0,91,0.00,,,0.04,Wunderground v.1.15,2013-06-26 14:18:00,
2013-06-26 10:20:00,74.3,71.5,29.99,WSW,251,2.0,9.0,91,0.00,,,0.04,Wunderground v.1.15,2013-06-26 14:20:00,
2013-06-26 10:22:00,74.4,71.3,30.00,West,269,2.0,9.0,90,0.00,,,0.04,Wunderground v.1.15,2013-06-26 14:22:00,
2013-06-26 10:26:00,74.5,71.4,30.00,WSW,254,1.0,9.0,90,0.00,,,0.04,Wunderground v.1.15,2013-06-26 14:26:00,
2013-06-26 10:28:00,74.5,71.0,30.00,West,270,2.0,9.0,89,0.00,,,0.04,Wunderground v.1.15,2013-06-26 14:28:00,
2013-06-26 10:32:00,74.4,70.9,30.00,WSW,239,2.0,5.0,89,0.00,,,0.04,Wunderground v.1.15,2013-06-26 14:32:00,
2013-06-26 10:34:00,74.4,70.9,30.00,SW,224,2.0,9.0,89,0.00,,,0.04,Wunderground v.1.15,2013-06-26 14:34:00,
2013-06-26 10:36:00,74.4,71.3,30.00,West,279,2.0,9.0,90,0.00,,,0.04,Wunderground v.1.15,2013-06-26 14:36:00,
2013-06-26 10:40:00,74.3,70.8,30.00,WSW,239,2.0,2.0,89,0.00,,,0.04,Wunderground v.1.15,2013-06-26 14:40:00,
2013-06-26 10:42:00,74.3,71.2,30.00,WSW,255,2.0,9.0,90,0.00,,,0.04,Wunderground v.1.15,2013-06-26 14:42:00,
2013-06-26 10:44:00,74.4,70.9,30.00,SW,231,2.0,9.0,89,0.00,,,0.04,Wunderground v.1.15,2013-06-26 14:44:00,
2013-06-26 10:46:00,74.4,70.9,30.00,WNW,292,2.0,9.0,89,0.00,,,0.04,Wunderground v.1.15,2013-06-26 14:46:00,
2013-06-26 10:50:00,74.5,71.0,30.00,WNW,284,1.0,1.0,89,0.00,,,0.04,Wunderground v.1.15,2013-06-26 14:50:00,
2013-06-26 10:52:00,74.5,71.4,30.01,WNW,291,1.0,6.0,90,0.00,,,0.04,Wunderground v.1.15,2013-06-26 14:52:00,
2013-06-26 10:56:00,74.7,71.2,30.00,SW,230,1.0,9.0,89,0.00,,,0.04,Wunderground v.1.15,2013-06-26 14:56:00,
2013-06-26 10:58:00,74.8,71.7,30.01,SW,224,1.0,9.0,90,0.00,,,0.04,Wunderground v.1.15,2013-06-26 14:58:00,
2013-06-26 11:02:00,74.9,71.8,30.01,West,271,1.0,9.0,90,0.00,,,0.04,Wunderground v.1.15,2013-06-26 15:02:00,
2013-06-26 11:04:00,75.0,71.5,30.01,South,187,1.0,9.0,89,0.00,,,0.04,Wunderground v.1.15,2013-06-26 15:04:00,
2013-06-26 11:06:00,75.1,72.0,30.01,West,266,1.0,9.0,90,0.00,,,0.04,Wunderground v.1.15,2013-06-26 15:06:00,
2013-06-26 11:08:00,75.2,71.7,30.01,West,259,0.0,9.0,89,0.00,,,0.04,Wunderground v.1.15,2013-06-26 15:08:00,
2013-06-26 11:10:00,75.3,72.2,30.01,WSW,251,0.0,9.0,90,0.00,,,0.04,Wunderground v.1.15,2013-06-26 15:10:00,
2013-06-26 11:12:00,75.5,72.0,30.01,WSW,252,1.0,9.0,89,0.00,,,0.04,Wunderground v.1.15,2013-06-26 15:12:00,
2013-06-26 11:14:00,75.5,71.7,30.01,WSW,244,1.0,9.0,88,0.00,,,0.04,Wunderground v.1.15,2013-06-26 15:14:00,
2013-06-26 11:20:00,75.9,72.8,30.00,WSW,244,1.0,1.0,90,0.00,,,0.04,Wunderground v.1.15,2013-06-26 15:20:00,
2013-06-26 11:22:00,76.0,72.9,30.00,West,261,1.0,9.0,90,0.00,,,0.04,Wunderground v.1.15,2013-06-26 15:22:00,
2013-06-26 11:24:00,76.1,72.3,30.00,West,271,1.0,9.0,88,0.00,,,0.04,Wunderground v.1.15,2013-06-26 15:24:00,
2013-06-26 11:26:00,76.3,72.5,30.00,SSW,208,1.0,9.0,88,0.00,,,0.04,Wunderground v.1.15,2013-06-26 15:26:00,
2013-06-26 11:28:00,76.5,72.3,30.00,WSW,252,1.0,9.0,87,0.00,,,0.04,Wunderground v.1.15,2013-06-26 15:28:00,
2013-06-26 11:32:00,76.7,72.2,30.00,SW,236,2.0,9.0,86,0.00,,,0.04,Wunderground v.1.15,2013-06-26 15:32:00,
2013-06-26 11:36:00,76.7,71.5,30.00,WSW,238,3.0,9.0,84,0.00,,,0.04,Wunderground v.1.15,2013-06-26 15:36:00,
2013-06-26 11:42:00,77.3,73.1,30.00,WNW,293,3.0,6.0,87,0.00,,,0.04,Wunderground v.1.15,2013-06-26 15:42:00,
2013-06-26 11:44:00,77.5,73.0,30.00,SW,234,2.0,9.0,86,0.00,,,0.04,Wunderground v.1.15,2013-06-26 15:44:00,
2013-06-26 11:46:00,77.6,72.4,30.00,WNW,289,2.0,9.0,84,0.00,,,0.04,Wunderground v.1.15,2013-06-26 15:46:00,
2013-06-26 11:50:00,77.8,72.6,30.00,WNW,293,2.0,2.0,84,0.00,,,0.04,Wunderground v.1.15,2013-06-26 15:50:00,
2013-06-26 11:52:00,78.0,73.1,30.00,WSW,256,2.0,9.0,85,0.00,,,0.04,Wunderground v.1.15,2013-06-26 15:52:00,
2013-06-26 11:54:00,78.1,72.9,30.00,West,270,2.0,9.0,84,0.00,,,0.04,Wunderground v.1.15,2013-06-26 15:54:00,
2013-06-26 11:56:00,78.2,73.7,30.00,WSW,249,1.0,9.0,86,0.00,,,0.04,Wunderground v.1.15,2013-06-26 15:56:00,
2013-06-26 11:58:00,78.4,73.5,30.00,SW,214,1.0,9.0,85,0.00,,,0.04,Wunderground v.1.15,2013-06-26 15:58:00,
2013-06-26 12:04:00,78.4,72.8,30.00,WNW,295,2.0,9.0,83,0.00,,,0.04,Wunderground v.1.15,2013-06-26 16:04:00,
2013-06-26 12:06:00,78.4,72.4,30.00,WNW,293,2.0,9.0,82,0.00,,,0.04,Wunderground v.1.15,2013-06-26 16:06:00,
2013-06-26 12:08:00,78.4,73.5,30.00,South,178,3.0,9.0,85,0.00,,,0.04,Wunderground v.1.15,2013-06-26 16:08:00,
2013-06-26 12:10:00,78.4,72.8,30.00,SW,219,4.0,9.0,83,0.00,,,0.04,Wunderground v.1.15,2013-06-26 16:10:00,
2013-06-26 12:12:00,78.5,72.9,30.00,SW,220,4.0,9.0,83,0.00,,,0.04,Wunderground v.1.15,2013-06-26 16:12:00,
2013-06-26 12:14:00,78.6,73.0,29.99,SW,230,3.0,9.0,83,0.00,,,0.04,Wunderground v.1.15,2013-06-26 16:14:00,
2013-06-26 12:16:00,78.8,73.2,30.00,WSW,245,3.0,9.0,83,0.00,,,0.04,Wunderground v.1.15,2013-06-26 16:16:00,
2013-06-26 12:18:00,78.9,73.3,29.99,SW,229,3.0,9.0,83,0.00,,,0.04,Wunderground v.1.15,2013-06-26 16:18:00,
2013-06-26 12:22:00,79.2,73.2,29.99,WNW,285,3.0,9.0,82,0.00,,,0.04,Wunderground v.1.15,2013-06-26 16:22:00,
2013-06-26 12:24:00,79.3,73.3,29.99,SW,217,3.0,9.0,82,0.00,,,0.04,Wunderground v.1.15,2013-06-26 16:24:00,
2013-06-26 12:26:00,79.4,73.4,30.00,SW,227,3.0,9.0,82,0.00,,,0.04,Wunderground v.1.15,2013-06-26 16:26:00,
2013-06-26 12:28:00,79.6,74.0,30.00,West,274,4.0,9.0,83,0.00,,,0.04,Wunderground v.1.15,2013-06-26 16:28:00,
2013-06-26 12:30:00,79.7,73.7,30.00,WSW,240,3.0,3.0,82,0.00,,,0.04,Wunderground v.1.15,2013-06-26 16:30:00,
2013-06-26 12:32:00,79.9,73.5,30.00,WNW,292,3.0,5.0,81,0.00,,,0.04,Wunderground v.1.15,2013-06-26 16:32:00,
2013-06-26 12:34:00,80.0,74.4,30.00,West,267,3.0,9.0,83,0.00,,,0.04,Wunderground v.1.15,2013-06-26 16:34:00,
2013-06-26 12:38:00,80.3,73.9,30.00,NW,325,2.0,9.0,81,0.00,,,0.04,Wunderground v.1.15,2013-06-26 16:38:00,
2013-06-26 12:40:00,80.5,74.9,30.00,NNW,329,2.0,2.0,83,0.00,,,0.04,Wunderground v.1.15,2013-06-26 16:40:00,
2013-06-26 12:44:00,80.9,74.5,30.00,WSW,248,2.0,9.0,81,0.00,,,0.04,Wunderground v.1.15,2013-06-26 16:44:00,
2013-06-26 12:48:00,81.1,74.7,29.99,WNW,288,1.0,9.0,81,0.00,,,0.04,Wunderground v.1.15,2013-06-26 16:48:00,
2013-06-26 12:50:00,81.1,74.3,29.99,West,261,2.0,2.0,80,0.00,,,0.04,Wunderground v.1.15,2013-06-26 16:50:00,
2013-06-26 12:56:00,81.1,74.3,29.99,WSW,251,1.0,9.0,80,0.00,,,0.04,Wunderground v.1.15,2013-06-26 16:56:00,
2013-06-26 12:58:00,81.3,75.3,29.99,WNW,295,1.0,9.0,82,0.00,,,0.04,Wunderground v.1.15,2013-06-26 16:58:00,
2013-06-26 13:04:00,81.8,75.0,29.99,WNW,286,2.0,9.0,80,0.00,,,0.04,Wunderground v.1.15,2013-06-26 17:04:00,
2013-06-26 13:10:00,81.8,74.6,29.99,NNW,344,3.0,3.0,79,0.00,,,0.04,Wunderground v.1.15,2013-06-26 17:10:00,
2013-06-26 13:12:00,82.0,75.2,29.99,SW,236,2.0,9.0,80,0.00,,,0.04,Wunderground v.1.15,2013-06-26 17:12:00,
2013-06-26 13:16:00,82.4,75.6,29.99,WNW,287,1.0,9.0,80,0.00,,,0.04,Wunderground v.1.15,2013-06-26 17:16:00,
2013-06-26 13:18:00,82.6,75.0,29.99,WSW,255,1.0,9.0,78,0.00,,,0.04,Wunderground v.1.15,2013-06-26 17:18:00,
2013-06-26 13:20:00,82.6,73.5,29.98,WSW,248,1.0,9.0,74,0.00,,,0.04,Wunderground v.1.15,2013-06-26 17:20:00,
2013-06-26 13:22:00,82.6,74.7,29.98,West,273,2.0,9.0,77,0.00,,,0.04,Wunderground v.1.15,2013-06-26 17:22:00,
2013-06-26 13:24:00,82.7,74.0,29.98,WSW,247,2.0,9.0,75,0.00,,,0.04,Wunderground v.1.15,2013-06-26 17:24:00,
2013-06-26 13:28:00,82.7,74.0,29.98,West,264,2.0,9.0,75,0.00,,,0.04,Wunderground v.1.15,2013-06-26 17:28:00,
2013-06-26 13:32:00,82.7,74.8,29.98,SW,221,1.0,9.0,77,0.00,,,0.04,Wunderground v.1.15,2013-06-26 17:32:00,
2013-06-26 13:34:00,83.0,75.0,29.98,West,262,1.0,9.0,77,0.00,,,0.04,Wunderground v.1.15,2013-06-26 17:34:00,
2013-06-26 13:38:00,83.0,74.6,29.97,West,265,2.0,9.0,76,0.00,,,0.04,Wunderground v.1.15,2013-06-26 17:38:00,
2013-06-26 13:40:00,83.0,74.3,29.97,WNW,296,2.0,9.0,75,0.00,,,0.04,Wunderground v.1.15,2013-06-26 17:40:00,
2013-06-26 13:44:00,83.2,74.4,29.97,WSW,253,2.0,9.0,75,0.00,,,0.04,Wunderground v.1.15,2013-06-26 17:44:00,
2013-06-26 13:46:00,83.3,74.9,29.97,WNW,298,2.0,9.0,76,0.00,,,0.04,Wunderground v.1.15,2013-06-26 17:46:00,
2013-06-26 13:48:00,83.6,75.2,29.97,WNW,296,1.0,9.0,76,0.00,,,0.04,Wunderground v.1.15,2013-06-26 17:48:00,
2013-06-26 13:52:00,83.8,75.4,29.97,WNW,301,1.0,2.0,76,0.00,,,0.04,Wunderground v.1.15,2013-06-26 17:52:00,
2013-06-26 13:54:00,83.9,73.9,29.96,WNW,292,1.0,9.0,72,0.00,,,0.04,Wunderground v.1.15,2013-06-26 17:54:00,
2013-06-26 13:58:00,84.1,74.5,29.96,West,265,1.0,9.0,73,0.00,,,0.04,Wunderground v.1.15,2013-06-26 17:58:00,
2013-06-26 14:00:00,84.2,74.6,29.96,WNW,284,1.0,9.0,73,0.00,,,0.04,Wunderground v.1.15,2013-06-26 18:00:00,
2013-06-26 14:02:00,84.0,74.0,29.96,NNW,327,1.0,9.0,72,0.00,,,0.04,Wunderground v.1.15,2013-06-26 18:02:00,
2013-06-26 14:06:00,83.5,73.9,29.96,WSW,237,2.0,9.0,73,0.00,,,0.04,Wunderground v.1.15,2013-06-26 18:06:00,
2013-06-26 14:08:00,83.4,74.6,29.96,SW,236,2.0,9.0,75,0.00,,,0.04,Wunderground v.1.15,2013-06-26 18:08:00,
2013-06-26 14:12:00,83.4,73.4,29.96,WSW,252,3.0,7.0,72,0.00,,,0.04,Wunderground v.1.15,2013-06-26 18:12:00,
2013-06-26 14:14:00,83.4,72.6,29.96,SW,221,3.0,9.0,70,0.00,,,0.04,Wunderground v.1.15,2013-06-26 18:14:00,
2013-06-26 14:20:00,83.9,73.9,29.95,SW,216,4.0,9.0,72,0.00,,,0.04,Wunderground v.1.15,2013-06-26 18:20:00,
2013-06-26 14:22:00,83.9,72.6,29.95,WSW,241,5.0,9.0,69,0.00,,,0.04,Wunderground v.1.15,2013-06-26 18:22:00,
2013-06-26 14:24:00,83.9,73.1,29.95,West,261,4.0,9.0,70,0.00,,,0.04,Wunderground v.1.15,2013-06-26 18:24:00,
2013-06-26 14:26:00,83.9,73.1,29.95,WSW,256,3.0,9.0,70,0.00,,,0.04,Wunderground v.1.15,2013-06-26 18:26:00,
2013-06-26 14:30:00,83.8,72.5,29.95,South,184,4.0,4.0,69,0.00,,,0.04,Wunderground v.1.15,2013-06-26 18:30:00,
2013-06-26 14:32:00,84.0,73.2,29.94,West,259,3.0,9.0,70,0.00,,,0.04,Wunderground v.1.15,2013-06-26 18:32:00,
2013-06-26 14:34:00,84.0,72.7,29.94,West,263,3.0,9.0,69,0.00,,,0.04,Wunderground v.1.15,2013-06-26 18:34:00,
2013-06-26 14:36:00,84.0,73.6,29.94,SSW,197,3.0,9.0,71,0.00,,,0.04,Wunderground v.1.15,2013-06-26 18:36:00,
2013-06-26 14:38:00,84.2,73.8,29.94,WNW,287,2.0,9.0,71,0.00,,,0.04,Wunderground v.1.15,2013-06-26 18:38:00,
2013-06-26 14:40:00,84.4,73.1,29.94,WSW,242,1.0,9.0,69,0.00,,,0.04,Wunderground v.1.15,2013-06-26 18:40:00,
2013-06-26 14:44:00,84.6,72.9,29.93,West,261,3.0,9.0,68,0.00,,,0.04,Wunderground v.1.15,2013-06-26 18:44:00,
2013-06-26 14:46:00,84.8,73.9,29.93,WSW,248,3.0,9.0,70,0.00,,,0.04,Wunderground v.1.15,2013-06-26 18:46:00,
2013-06-26 14:48:00,85.0,73.3,29.93,WNW,291,3.0,9.0,68,0.00,,,0.04,Wunderground v.1.15,2013-06-26 18:48:00,
2013-06-26 14:50:00,85.2,74.3,29.93,NW,309,3.0,3.0,70,0.00,,,0.04,Wunderground v.1.15,2013-06-26 18:50:00,
2013-06-26 14:52:00,85.4,73.6,29.93,West,277,2.0,9.0,68,0.00,,,0.04,Wunderground v.1.15,2013-06-26 18:52:00,
2013-06-26 14:54:00,85.6,74.3,29.94,WNW,300,2.0,9.0,69,0.00,,,0.04,Wunderground v.1.15,2013-06-26 18:54:00,
2013-06-26 14:56:00,85.6,72.9,29.94,SW,234,2.0,9.0,66,0.00,,,0.04,Wunderground v.1.15,2013-06-26 18:56:00,
2013-06-26 14:58:00,85.5,73.3,29.94,NW,324,2.0,9.0,67,0.00,,,0.04,Wunderground v.1.15,2013-06-26 18:58:00,
2013-06-26 15:00:00,85.4,73.2,29.94,SSW,196,2.0,9.0,67,0.00,,,0.04,Wunderground v.1.15,2013-06-26 19:00:00,
2013-06-26 15:02:00,85.3,72.2,29.94,WSW,254,3.0,9.0,65,0.00,,,0.04,Wunderground v.1.15,2013-06-26 19:02:00,
2013-06-26 15:06:00,85.2,73.9,29.93,WSW,240,4.0,9.0,69,0.00,,,0.04,Wunderground v.1.15,2013-06-26 19:06:00,
2013-06-26 15:08:00,85.4,72.7,29.94,SW,227,4.0,9.0,66,0.00,,,0.04,Wunderground v.1.15,2013-06-26 19:08:00,
2013-06-26 15:12:00,85.7,73.5,29.93,NW,311,3.0,6.0,67,0.00,,,0.04,Wunderground v.1.15,2013-06-26 19:12:00,
2013-06-26 15:14:00,85.6,72.0,29.93,WNW,289,2.0,9.0,64,0.00,,,0.04,Wunderground v.1.15,2013-06-26 19:14:00,
2013-06-26 15:16:00,85.6,72.9,29.93,WNW,293,2.0,9.0,66,0.00,,,0.04,Wunderground v.1.15,2013-06-26 19:16:00,
2013-06-26 15:18:00,85.6,73.4,29.93,WSW,241,2.0,9.0,67,0.00,,,0.04,Wunderground v.1.15,2013-06-26 19:18:00,
2013-06-26 15:20:00,85.4,71.8,29.93,SSW,204,3.0,9.0,64,0.00,,,0.04,Wunderground v.1.15,2013-06-26 19:20:00,
2013-06-26 15:22:00,85.2,72.1,29.93,WSW,246,4.0,9.0,65,0.00,,,0.04,Wunderground v.1.15,2013-06-26 19:22:00,
2013-06-26 15:24:00,85.0,72.4,29.93,NW,311,3.0,9.0,66,0.00,,,0.04,Wunderground v.1.15,2013-06-26 19:24:00,
2013-06-26 15:26:00,85.0,74.1,29.93,WSW,250,3.0,9.0,70,0.00,,,0.04,Wunderground v.1.15,2013-06-26 19:26:00,
2013-06-26 15:30:00,85.2,73.4,29.92,WSW,248,3.0,3.0,68,0.00,,,0.04,Wunderground v.1.15,2013-06-26 19:30:00,
2013-06-26 15:32:00,85.4,74.1,29.92,WSW,238,2.0,4.0,69,0.00,,,0.04,Wunderground v.1.15,2013-06-26 19:32:00,
2013-06-26 15:36:00,85.5,74.2,29.91,WNW,286,3.0,9.0,69,0.00,,,0.04,Wunderground v.1.15,2013-06-26 19:36:00,
2013-06-26 15:38:00,85.6,72.0,29.91,West,279,4.0,9.0,64,0.00,,,0.04,Wunderground v.1.15,2013-06-26 19:38:00,
2013-06-26 15:40:00,85.6,73.4,29.91,SW,217,4.0,4.0,67,0.00,,,0.04,Wunderground v.1.15,2013-06-26 19:40:00,
2013-06-26 15:44:00,85.3,71.7,29.91,WNW,284,4.0,9.0,64,0.00,,,0.04,Wunderground v.1.15,2013-06-26 19:44:00,
2013-06-26 15:46:00,85.0,71.5,29.91,WSW,254,5.0,13.0,64,0.00,,,0.04,Wunderground v.1.15,2013-06-26 19:46:00,
2013-06-26 15:50:00,84.7,70.7,29.91,WSW,243,5.0,9.0,63,0.00,,,0.04,Wunderground v.1.15,2013-06-26 19:50:00,
2013-06-26 15:56:00,84.4,71.8,29.91,NNW,329,7.0,9.0,66,0.00,,,0.04,Wunderground v.1.15,2013-06-26 19:56:00,
2013-06-26 15:58:00,84.3,71.7,29.91,SW,225,6.0,9.0,66,0.00,,,0.04,Wunderground v.1.15,2013-06-26 19:58:00,
2013-06-26 16:02:00,84.1,72.4,29.91,West,261,4.0,9.0,68,0.00,,,0.04,Wunderground v.1.15,2013-06-26 20:02:00,
2013-06-26 16:04:00,84.2,72.5,29.90,West,265,4.0,9.0,68,0.00,,,0.04,Wunderground v.1.15,2013-06-26 20:04:00,
2013-06-26 16:06:00,84.3,72.1,29.91,SW,228,3.0,9.0,67,0.00,,,0.04,Wunderground v.1.15,2013-06-26 20:06:00,
2013-06-26 16:10:00,84.7,73.0,29.90,WNW,300,2.0,9.0,68,0.00,,,0.04,Wunderground v.1.15,2013-06-26 20:10:00,
2013-06-26 16:12:00,84.9,71.4,29.90,WNW,288,2.0,9.0,64,0.00,,,0.04,Wunderground v.1.15,2013-06-26 20:12:00,
2013-06-26 16:14:00,85.1,72.5,29.90,West,261,3.0,9.0,66,0.00,,,0.04,Wunderground v.1.15,2013-06-26 20:14:00,
2013-06-26 16:18:00,85.6,73.8,29.90,WSW,244,2.0,9.0,68,0.00,,,0.04,Wunderground v.1.15,2013-06-26 20:18:00,
2013-06-26 16:22:00,86.1,73.4,29.90,WNW,285,1.0,9.0,66,0.00,,,0.04,Wunderground v.1.15,2013-06-26 20:22:00,
2013-06-26 16:24:00,86.3,73.6,29.90,West,278,1.0,9.0,66,0.00,,,0.04,Wunderground v.1.15,2013-06-26 20:24:00,
2013-06-26 16:28:00,86.5,73.3,29.89,WNW,292,2.0,9.0,65,0.00,,,0.04,Wunderground v.1.15,2013-06-26 20:28:00,
2013-06-26 16:30:00,86.3,72.2,29.89,SSW,212,2.0,9.0,63,0.00,,,0.04,Wunderground v.1.15,2013-06-26 20:30:00,
2013-06-26 16:32:00,85.9,72.8,29.89,SSE,166,3.0,9.0,65,0.00,,,0.04,Wunderground v.1.15,2013-06-26 20:32:00,
2013-06-26 16:36:00,85.2,72.1,29.89,SW,236,4.0,9.0,65,0.00,,,0.04,Wunderground v.1.15,2013-06-26 20:36:00,
2013-06-26 16:38:00,84.7,71.6,29.89,NW,311,5.0,10.0,65,0.00,,,0.04,Wunderground v.1.15,2013-06-26 20:38:00,
2013-06-26 16:44:00,84.2,72.0,29.89,WSW,249,4.0,9.0,67,0.00,,,0.04,Wunderground v.1.15,2013-06-26 20:44:00,
2013-06-26 16:46:00,84.1,71.5,29.89,WSW,246,4.0,9.0,66,0.00,,,0.04,Wunderground v.1.15,2013-06-26 20:46:00,
2013-06-26 16:50:00,84.0,71.9,29.89,SW,236,3.0,3.0,67,0.00,,,0.04,Wunderground v.1.15,2013-06-26 20:50:00,
2013-06-26 16:52:00,83.9,71.8,29.89,SW,229,3.0,5.0,67,0.00,,,0.04,Wunderground v.1.15,2013-06-26 20:52:00,
2013-06-26 16:54:00,83.8,72.1,29.89,SW,221,3.0,9.0,68,0.00,,,0.04,Wunderground v.1.15,2013-06-26 20:54:00,
2013-06-26 16:56:00,83.7,72.0,29.90,SSW,204,3.0,9.0,68,0.00,,,0.04,Wunderground v.1.15,2013-06-26 20:56:00,
2013-06-26 16:58:00,83.6,72.3,29.89,West,267,3.0,9.0,69,0.00,,,0.04,Wunderground v.1.15,2013-06-26 20:58:00,
2013-06-26 17:02:00,83.4,72.6,29.89,SW,227,2.0,9.0,70,0.00,,,0.04,Wunderground v.1.15,2013-06-26 21:02:00,
2013-06-26 17:04:00,83.3,72.1,29.89,WNW,299,2.0,9.0,69,0.00,,,0.04,Wunderground v.1.15,2013-06-26 21:04:00,
2013-06-26 17:06:00,83.2,72.0,29.89,WSW,245,1.0,9.0,69,0.00,,,0.04,Wunderground v.1.15,2013-06-26 21:06:00,
2013-06-26 17:08:00,83.2,72.0,29.89,WSW,242,1.0,9.0,69,0.00,,,0.04,Wunderground v.1.15,2013-06-26 21:08:00,
2013-06-26 17:12:00,83.1,72.3,29.89,WSW,258,1.0,9.0,70,0.00,,,0.04,Wunderground v.1.15,2013-06-26 21:12:00,
2013-06-26 17:14:00,83.0,72.2,29.89,West,259,1.0,9.0,70,0.00,,,0.04,Wunderground v.1.15,2013-06-26 21:14:00,
2013-06-26 17:20:00,83.0,72.2,29.89,SSW,209,0.0,9.0,70,0.00,,,0.04,Wunderground v.1.15,2013-06-26 21:20:00,
2013-06-26 17:24:00,82.8,72.4,29.88,West,262,1.0,9.0,71,0.00,,,0.04,Wunderground v.1.15,2013-06-26 21:24:00,
2013-06-26 17:26:00,82.8,72.4,29.88,West,268,1.0,9.0,71,0.00,,,0.04,Wunderground v.1.15,2013-06-26 21:26:00,
2013-06-26 17:30:00,82.6,72.2,29.88,West,259,2.0,2.0,71,0.00,,,0.04,Wunderground v.1.15,2013-06-26 21:30:00,
2013-06-26 17:32:00,82.5,72.1,29.88,WSW,238,1.0,9.0,71,0.00,,,0.04,Wunderground v.1.15,2013-06-26 21:32:00,
2013-06-26 17:34:00,82.5,72.1,29.88,SW,215,1.0,9.0,71,0.00,,,0.04,Wunderground v.1.15,2013-06-26 21:34:00,
2013-06-26 17:36:00,82.6,72.2,29.88,West,262,1.0,9.0,71,0.00,,,0.04,Wunderground v.1.15,2013-06-26 21:36:00,
2013-06-26 17:38:00,82.5,72.6,29.88,WSW,255,1.0,9.0,72,0.00,,,0.04,Wunderground v.1.15,2013-06-26 21:38:00,
2013-06-26 17:40:00,82.5,72.6,29.88,West,267,0.0,9.0,72,0.00,,,0.04,Wunderground v.1.15,2013-06-26 21:40:00,
2013-06-26 17:43:00,82.5,73.0,29.87,West,269,0.0,9.0,73,0.00,,,0.04,Wunderground v.1.15,2013-06-26 21:43:00,
2013-06-26 17:48:00,82.4,72.9,29.87,WSW,257,1.0,9.0,73,0.00,,,0.04,Wunderground v.1.15,2013-06-26 21:48:00,
2013-06-26 17:54:00,82.2,73.5,29.86,SW,226,1.0,9.0,75,0.00,,,0.04,Wunderground v.1.15,2013-06-26 21:54:00,
2013-06-26 17:56:00,82.1,73.4,29.86,SW,219,1.0,9.0,75,0.00,,,0.04,Wunderground v.1.15,2013-06-26 21:56:00,
2013-06-26 17:58:00,82.0,73.3,29.85,SSW,204,1.0,9.0,75,0.00,,,0.04,Wunderground v.1.15,2013-06-26 21:58:00,
2013-06-26 18:00:00,82.0,73.3,29.85,SW,218,1.0,1.0,75,0.00,,,0.04,Wunderground v.1.15,2013-06-26 22:00:00,
2013-06-26 18:02:00,81.9,73.2,29.86,WSW,238,1.0,4.0,75,0.00,,,0.04,Wunderground v.1.15,2013-06-26 22:02:00,
2013-06-26 18:04:00,81.9,73.2,29.85,SSW,199,1.0,9.0,75,0.00,,,0.04,Wunderground v.1.15,2013-06-26 22:04:00,
2013-06-26 18:10:00,81.8,73.5,29.86,SW,223,1.0,1.0,76,0.00,,,0.04,Wunderground v.1.15,2013-06-26 22:10:00,
2013-06-26 18:12:00,81.7,73.4,29.86,WSW,241,1.0,3.0,76,0.00,,,0.04,Wunderground v.1.15,2013-06-26 22:12:00,
2013-06-26 18:14:00,81.6,72.9,29.86,SW,223,1.0,9.0,75,0.00,,,0.04,Wunderground v.1.15,2013-06-26 22:14:00,
2013-06-26 18:18:00,81.6,72.9,29.86,WSW,248,1.0,9.0,75,0.00,,,0.04,Wunderground v.1.15,2013-06-26 22:18:00,
2013-06-26 18:20:00,81.6,72.9,29.86,WSW,248,1.0,1.0,75,0.00,,,0.04,Wunderground v.1.15,2013-06-26 22:20:00,
2013-06-26 18:24:00,81.6,72.9,29.86,West,261,1.0,9.0,75,0.00,,,0.04,Wunderground v.1.15,2013-06-26 22:24:00,
2013-06-26 18:26:00,81.6,72.9,29.87,WNW,300,0.0,9.0,75,0.00,,,0.04,Wunderground v.1.15,2013-06-26 22:26:00,
2013-06-26 18:28:00,81.6,73.3,29.87,WNW,300,0.0,9.0,76,0.00,,,0.04,Wunderground v.1.15,2013-06-26 22:28:00,
2013-06-26 18:30:00,81.5,73.2,29.88,WNW,300,0.0,9.0,76,0.00,,,0.04,Wunderground v.1.15,2013-06-26 22:30:00,
2013-06-26 18:32:00,81.5,73.2,29.88,WNW,299,0.0,9.0,76,0.00,,,0.04,Wunderground v.1.15,2013-06-26 22:32:00,
2013-06-26 18:34:00,81.4,73.1,29.87,WSW,242,0.0,9.0,76,0.00,,,0.04,Wunderground v.1.15,2013-06-26 22:34:00,
2013-06-26 18:40:00,81.1,73.6,29.88,West,265,0.0,9.0,78,0.00,,,0.04,Wunderground v.1.15,2013-06-26 22:40:00,
2013-06-26 18:42:00,81.0,73.5,29.88,West,269,0.0,9.0,78,0.00,,,0.04,Wunderground v.1.15,2013-06-26 22:42:00,
2013-06-26 18:44:00,80.8,73.3,29.88,North,355,0.0,9.0,78,0.00,,,0.04,Wunderground v.1.15,2013-06-26 22:44:00,
2013-06-26 18:46:00,80.6,73.5,29.89,NNW,336,1.0,19.0,79,0.00,,,0.04,Wunderground v.1.15,2013-06-26 22:46:00,
2013-06-26 18:52:00,76.0,68.3,29.94,North,355,5.0,9.0,77,0.00,,,0.04,Wunderground v.1.15,2013-06-26 22:52:00,
2013-06-26 18:54:00,74.2,68.0,29.93,NNW,338,7.0,9.0,81,0.90,,,0.06,Wunderground v.1.15,2013-06-26 22:54:00,
2013-06-26 18:56:00,72.3,67.2,29.94,NNE,30,9.0,16.0,84,2.17,,,0.13,Wunderground v.1.15,2013-06-26 22:56:00,
2013-06-26 18:58:00,70.2,66.8,29.93,North,9,9.0,16.0,89,0.70,,,0.20,Wunderground v.1.15,2013-06-26 22:58:00,
2013-06-26 19:00:00,69.4,66.7,29.94,NNW,335,9.0,9.0,91,0.38,,,0.22,Wunderground v.1.15,2013-06-26 23:00:00,
2013-06-26 19:02:00,69.0,66.3,29.93,NNE,29,8.0,9.0,91,0.36,,,0.23,Wunderground v.1.15,2013-06-26 23:02:00,
2013-06-26 19:04:00,68.5,66.1,29.93,NW,315,8.0,9.0,92,0.32,,,0.24,Wunderground v.1.15,2013-06-26 23:04:00,
2013-06-26 19:06:00,68.1,66.3,29.92,North,360,7.0,11.0,94,2.68,,,0.31,Wunderground v.1.15,2013-06-26 23:06:00,
2013-06-26 19:08:00,67.7,65.9,29.91,NE,38,7.0,11.0,94,2.12,,,0.41,Wunderground v.1.15,2013-06-26 23:08:00,
2013-06-26 19:10:00,67.5,66.0,29.91,NNE,19,7.0,7.0,95,0.95,,,0.44,Wunderground v.1.15,2013-06-26 23:10:00,
2013-06-26 19:12:00,67.3,65.8,29.91,NE,34,7.0,10.0,95,0.38,,,0.45,Wunderground v.1.15,2013-06-26 23:12:00,
2013-06-26 19:16:00,67.2,66.0,29.91,North,360,6.0,10.0,96,0.11,,,0.45,Wunderground v.1.15,2013-06-26 23:16:00,
2013-06-26 19:18:00,67.2,66.0,29.91,NNW,329,4.0,10.0,96,0.07,,,0.45,Wunderground v.1.15,2013-06-26 23:18:00,
2013-06-26 19:22:00,67.1,65.9,29.91,NW,325,2.0,9.0,96,0.05,,,0.45,Wunderground v.1.15,2013-06-26 23:22:00,
2013-06-26 19:24:00,67.2,66.0,29.91,NW,321,2.0,9.0,96,0.04,,,0.45,Wunderground v.1.15,2013-06-26 23:24:00,
2013-06-26 19:26:00,67.2,66.0,29.92,North,5,1.0,9.0,96,0.04,,,0.45,Wunderground v.1.15,2013-06-26 23:26:00,
2013-06-26 19:28:00,67.2,66.3,29.92,WNW,300,1.0,9.0,97,0.04,,,0.46,Wunderground v.1.15,2013-06-26 23:28:00,
2013-06-26 19:30:00,67.2,66.3,29.92,NNW,332,0.0,9.0,97,0.04,,,0.46,Wunderground v.1.15,2013-06-26 23:30:00,
2013-06-26 19:34:00,67.3,66.4,29.93,NW,318,0.0,9.0,97,0.08,,,0.46,Wunderground v.1.15,2013-06-26 23:34:00,
2013-06-26 19:36:00,67.3,66.4,29.94,WNW,294,0.0,9.0,97,0.08,,,0.47,Wunderground v.1.15,2013-06-26 23:36:00,
2013-06-26 19:42:00,67.2,66.3,29.93,NNE,24,1.0,9.0,97,1.25,,,0.52,Wunderground v.1.15,2013-06-26 23:42:00,
2013-06-26 19:44:00,67.1,66.2,29.93,NNE,32,1.0,9.0,97,0.93,,,0.55,Wunderground v.1.15,2013-06-26 23:44:00,
2013-06-26 19:46:00,67.1,66.2,29.92,NE,34,1.0,9.0,97,0.39,,,0.56,Wunderground v.1.15,2013-06-26 23:46:00,
2013-06-26 19:48:00,67.1,66.2,29.92,North,360,1.0,9.0,97,0.29,,,0.57,Wunderground v.1.15,2013-06-26 23:48:00,
2013-06-26 19:54:00,67.1,66.2,29.91,North,10,0.0,9.0,97,0.48,,,0.62,Wunderground v.1.15,2013-06-26 23:54:00,
2013-06-26 19:56:00,67.1,66.2,29.91,North,10,0.0,9.0,97,0.19,,,0.63,Wunderground v.1.15,2013-06-26 23:56:00,
2013-06-26 19:58:00,67.2,66.3,29.91,NNE,32,0.0,9.0,97,0.43,,,0.64,Wunderground v.1.15,2013-06-26 23:58:00,
2013-06-26 20:02:00,67.1,66.2,29.91,North,5,0.0,9.0,97,0.15,,,0.65,Wunderground v.1.15,2013-06-27 00:02:00,
2013-06-26 20:06:00,67.1,66.2,29.91,North,355,0.0,9.0,97,0.12,,,0.66,Wunderground v.1.15,2013-06-27 00:06:00,
2013-06-26 20:08:00,67.2,66.3,29.91,North,355,0.0,9.0,97,0.20,,,0.67,Wunderground v.1.15,2013-06-27 00:08:00,
2013-06-26 20:14:00,67.2,66.3,29.89,SSW,194,1.0,9.0,97,0.88,,,0.83,Wunderground v.1.15,2013-06-27 00:14:00,
2013-06-26 20:16:00,67.2,66.3,29.88,NNW,348,1.0,9.0,97,0.27,,,0.83,Wunderground v.1.15,2013-06-27 00:16:00,
2013-06-26 20:18:00,67.4,66.8,29.88,NNW,347,1.0,9.0,98,0.14,,,0.83,Wunderground v.1.15,2013-06-27 00:18:00,
2013-06-26 20:20:00,67.5,66.9,29.87,ENE,66,1.0,1.0,98,0.13,,,0.84,Wunderground v.1.15,2013-06-27 00:20:00,
2013-06-26 20:22:00,67.6,67.0,29.87,ENE,66,1.0,9.0,98,0.13,,,0.84,Wunderground v.1.15,2013-06-27 00:22:00,
2013-06-26 20:26:00,67.7,67.1,29.86,ENE,66,0.0,9.0,98,0.14,,,0.85,Wunderground v.1.15,2013-06-27 00:26:00,
2013-06-26 20:28:00,67.7,66.8,29.86,ENE,66,0.0,9.0,97,0.11,,,0.85,Wunderground v.1.15,2013-06-27 00:28:00,
2013-06-26 20:30:00,67.7,66.8,29.86,ENE,66,0.0,9.0,97,0.10,,,0.86,Wunderground v.1.15,2013-06-27 00:30:00,
2013-06-26 20:32:00,67.7,66.8,29.86,ENE,66,0.0,9.0,97,0.10,,,0.86,Wunderground v.1.15,2013-06-27 00:32:00,
2013-06-26 20:34:00,67.6,66.7,29.86,ENE,66,0.0,9.0,97,0.10,,,0.86,Wunderground v.1.15,2013-06-27 00:34:00,
2013-06-26 20:36:00,67.6,66.7,29.87,ENE,66,0.0,9.0,97,0.09,,,0.86,Wunderground v.1.15,2013-06-27 00:36:00,
2013-06-26 20:38:00,67.4,66.5,29.87,ENE,67,0.0,9.0,97,0.08,,,0.87,Wunderground v.1.15,2013-06-27 00:38:00,
2013-06-26 20:40:00,67.4,66.5,29.87,ENE,67,0.0,9.0,97,0.08,,,0.87,Wunderground v.1.15,2013-06-27 00:40:00,
2013-06-26 20:44:00,67.4,66.8,29.86,ENE,67,0.0,9.0,98,0.12,,,0.88,Wunderground v.1.15,2013-06-27 00:44:00,
2013-06-26 20:46:00,67.4,66.8,29.86,ENE,67,0.0,9.0,98,0.12,,,0.88,Wunderground v.1.15,2013-06-27 00:46:00,
2013-06-26 20:48:00,67.4,66.8,29.86,ENE,67,0.0,9.0,98,0.09,,,0.88,Wunderground v.1.15,2013-06-27 00:48:00,
2013-06-26 20:52:00,67.4,66.8,29.85,ENE,67,0.0,9.0,98,0.06,,,0.88,Wunderground v.1.15,2013-06-27 00:52:00,
2013-06-26 20:54:00,67.3,66.7,29.85,South,180,0.0,9.0,98,0.05,,,0.89,Wunderground v.1.15,2013-06-27 00:54:00,
2013-06-26 20:56:00,67.3,66.7,29.85,South,180,0.0,9.0,98,0.05,,,0.89,Wunderground v.1.15,2013-06-27 00:56:00,
2013-06-26 20:58:00,67.4,66.8,29.84,South,178,0.0,9.0,98,0.05,,,0.89,Wunderground v.1.15,2013-06-27 00:58:00,
2013-06-26 21:00:00,67.4,66.8,29.84,South,178,0.0,9.0,98,0.05,,,0.89,Wunderground v.1.15,2013-06-27 01:00:00,
2013-06-26 21:02:00,67.4,66.8,29.85,South,178,0.0,9.0,98,0.05,,,0.89,Wunderground v.1.15,2013-06-27 01:02:00,
2013-06-26 21:08:00,67.5,66.9,29.85,South,175,0.0,9.0,98,0.04,,,0.89,Wunderground v.1.15,2013-06-27 01:08:00,
2013-06-26 21:12:00,67.4,66.8,29.85,South,175,0.0,9.0,98,0.00,,,0.89,Wunderground v.1.15,2013-06-27 01:12:00,
2013-06-26 21:14:00,67.4,66.8,29.85,South,175,0.0,9.0,98,0.00,,,0.89,Wunderground v.1.15,2013-06-27 01:14:00,
2013-06-26 21:18:00,67.2,66.6,29.85,SW,223,0.0,9.0,98,0.00,,,0.89,Wunderground v.1.15,2013-06-27 01:18:00,
2013-06-26 21:20:00,67.1,66.5,29.85,SSW,213,0.0,9.0,98,0.00,,,0.89,Wunderground v.1.15,2013-06-27 01:20:00,
2013-06-26 21:24:00,67.1,66.5,29.85,SSW,213,0.0,9.0,98,0.00,,,0.89,Wunderground v.1.15,2013-06-27 01:24:00,
2013-06-26 21:26:00,67.1,66.5,29.85,SSW,213,0.0,9.0,98,0.00,,,0.89,Wunderground v.1.15,2013-06-27 01:26:00,
2013-06-26 21:28:00,67.1,66.5,29.84,SSW,213,0.0,9.0,98,0.00,,,0.89,Wunderground v.1.15,2013-06-27 01:28:00,
2013-06-26 21:30:00,67.1,66.5,29.84,SSW,213,0.0,9.0,98,0.00,,,0.89,Wunderground v.1.15,2013-06-27 01:30:00,
2013-06-26 21:32:00,67.1,66.5,29.84,SSW,213,0.0,9.0,98,0.00,,,0.89,Wunderground v.1.15,2013-06-27 01:32:00,
2013-06-26 21:34:00,67.1,66.5,29.85,SSW,213,0.0,9.0,98,0.00,,,0.89,Wunderground v.1.15,2013-06-27 01:34:00,
2013-06-26 21:36:00,67.2,66.6,29.85,SSW,213,0.0,9.0,98,0.00,,,0.89,Wunderground v.1.15,2013-06-27 01:36:00,
2013-06-26 21:40:00,67.2,66.6,29.84,SSW,213,0.0,9.0,98,0.00,,,0.89,Wunderground v.1.15,2013-06-27 01:40:00,
2013-06-26 21:44:00,67.1,66.5,29.85,SSW,213,0.0,9.0,98,0.00,,,0.89,Wunderground v.1.15,2013-06-27 01:44:00,
2013-06-26 21:46:00,67.1,66.5,29.85,SSW,213,0.0,9.0,98,0.00,,,0.89,Wunderground v.1.15,2013-06-27 01:46:00,
2013-06-26 21:49:00,67.1,66.5,29.85,SSW,213,0.0,9.0,98,0.00,,,0.89,Wunderground v.1.15,2013-06-27 01:49:00,
2013-06-26 21:52:00,67.2,66.6,29.85,SSW,213,0.0,9.0,98,0.00,,,0.89,Wunderground v.1.15,2013-06-27 01:52:00,
2013-06-26 21:54:00,67.1,66.5,29.85,SSW,213,0.0,9.0,98,0.00,,,0.89,Wunderground v.1.15,2013-06-27 01:54:00,
2013-06-26 21:56:00,67.1,66.5,29.85,SSW,213,0.0,9.0,98,0.00,,,0.89,Wunderground v.1.15,2013-06-27 01:56:00,
2013-06-26 21:58:00,67.1,66.5,29.85,SSW,213,0.0,9.0,98,0.00,,,0.89,Wunderground v.1.15,2013-06-27 01:58:00,
2013-06-26 22:02:00,67.1,66.5,29.85,SSW,213,0.0,9.0,98,0.00,,,0.89,Wunderground v.1.15,2013-06-27 02:02:00,
2013-06-26 22:04:00,67.0,66.4,29.85,SSW,213,0.0,9.0,98,0.00,,,0.89,Wunderground v.1.15,2013-06-27 02:04:00,
2013-06-26 22:06:00,67.0,66.4,29.85,SSW,213,0.0,9.0,98,0.00,,,0.89,Wunderground v.1.15,2013-06-27 02:06:00,
2013-06-26 22:10:00,67.0,66.4,29.85,SSW,213,0.0,9.0,98,0.00,,,0.89,Wunderground v.1.15,2013-06-27 02:10:00,
2013-06-26 22:12:00,66.9,66.6,29.85,SSW,213,0.0,9.0,99,0.00,,,0.89,Wunderground v.1.15,2013-06-27 02:12:00,
2013-06-26 22:14:00,66.9,66.6,29.85,SSW,213,0.0,9.0,99,0.00,,,0.89,Wunderground v.1.15,2013-06-27 02:14:00,
2013-06-26 22:16:00,66.9,66.6,29.86,SSW,213,0.0,9.0,99,0.00,,,0.89,Wunderground v.1.15,2013-06-27 02:16:00,
2013-06-26 22:20:00,66.9,66.6,29.86,SSW,213,0.0,9.0,99,0.00,,,0.89,Wunderground v.1.15,2013-06-27 02:20:00,
2013-06-26 22:22:00,66.8,66.5,29.86,SSW,212,0.0,9.0,99,0.00,,,0.89,Wunderground v.1.15,2013-06-27 02:22:00,
2013-06-26 22:26:00,66.8,66.5,29.85,SSW,212,1.0,9.0,99,0.00,,,0.89,Wunderground v.1.15,2013-06-27 02:26:00,
2013-06-26 22:28:00,66.8,66.5,29.86,SSW,212,1.0,9.0,99,0.00,,,0.89,Wunderground v.1.15,2013-06-27 02:28:00,
2013-06-26 22:30:00,66.8,66.5,29.86,SSW,212,1.0,1.0,99,0.00,,,0.89,Wunderground v.1.15,2013-06-27 02:30:00,
2013-06-26 22:32:00,66.8,66.5,29.86,SSW,212,1.0,9.0,99,0.00,,,0.89,Wunderground v.1.15,2013-06-27 02:32:00,
2013-06-26 22:34:00,66.8,66.5,29.86,SSW,207,1.0,9.0,99,0.00,,,0.89,Wunderground v.1.15,2013-06-27 02:34:00,
2013-06-26 22:40:00,66.7,66.4,29.86,SSW,193,1.0,1.0,99,0.00,,,0.89,Wunderground v.1.15,2013-06-27 02:40:00,
2013-06-26 22:42:00,66.8,66.5,29.86,SSW,193,0.0,9.0,99,0.00,,,0.89,Wunderground v.1.15,2013-06-27 02:42:00,
2013-06-26 22:44:00,66.8,66.5,29.86,SSW,193,0.0,9.0,99,0.00,,,0.89,Wunderground v.1.15,2013-06-27 02:44:00,
2013-06-26 22:48:00,66.8,66.5,29.86,SSW,193,0.0,9.0,99,0.00,,,0.89,Wunderground v.1.15,2013-06-27 02:48:00,
2013-06-26 22:52:00,66.8,66.5,29.87,SSW,193,0.0,9.0,99,0.00,,,0.89,Wunderground v.1.15,2013-06-27 02:52:00,
2013-06-26 22:54:00,66.8,66.5,29.87,SSW,193,0.0,9.0,99,0.00,,,0.89,Wunderground v.1.15,2013-06-27 02:54:00,
2013-06-26 22:58:00,66.8,66.5,29.88,South,191,0.0,9.0,99,0.00,,,0.89,Wunderground v.1.15,2013-06-27 02:58:00,
2013-06-26 23:04:00,66.8,66.5,29.89,NE,46,1.0,9.0,99,0.00,,,0.89,Wunderground v.1.15,2013-06-27 03:04:00,
2013-06-26 23:06:00,66.9,66.6,29.89,ENE,57,1.0,9.0,99,0.00,,,0.89,Wunderground v.1.15,2013-06-27 03:06:00,
2013-06-26 23:10:00,67.0,66.7,29.89,ESE,117,0.0,9.0,99,0.00,,,0.89,Wunderground v.1.15,2013-06-27 03:10:00,
2013-06-26 23:12:00,66.9,66.6,29.89,ESE,117,0.0,9.0,99,0.00,,,0.89,Wunderground v.1.15,2013-06-27 03:12:00,
2013-06-26 23:14:00,66.9,66.6,29.89,ESE,117,0.0,9.0,99,0.00,,,0.89,Wunderground v.1.15,2013-06-27 03:14:00,
2013-06-26 23:18:00,67.0,66.7,29.89,ESE,117,0.0,9.0,99,0.00,,,0.89,Wunderground v.1.15,2013-06-27 03:18:00,
2013-06-26 23:22:00,67.0,66.7,29.88,ESE,117,0.0,9.0,99,0.00,,,0.89,Wunderground v.1.15,2013-06-27 03:22:00,
2013-06-26 23:26:00,67.1,66.8,29.90,ESE,118,0.0,9.0,99,1.61,,,0.95,Wunderground v.1.15,2013-06-27 03:26:00,
2013-06-26 23:28:00,67.1,66.8,29.89,ESE,117,0.0,9.0,99,2.63,,,1.02,Wunderground v.1.15,2013-06-27 03:28:00,
2013-06-26 23:34:00,67.0,66.7,29.86,ENE,70,0.0,9.0,99,0.81,,,1.20,Wunderground v.1.15,2013-06-27 03:34:00,
2013-06-26 23:36:00,67.0,66.7,29.85,ENE,62,0.0,9.0,99,1.75,,,1.25,Wunderground v.1.15,2013-06-27 03:36:00,
2013-06-26 23:42:00,66.8,66.5,29.88,NNE,26,2.0,9.0,99,0.77,,,1.32,Wunderground v.1.15,2013-06-27 03:42:00,
2013-06-26 23:44:00,66.8,66.5,29.88,ENE,73,2.0,9.0,99,2.94,,,1.37,Wunderground v.1.15,2013-06-27 03:44:00,
2013-06-26 23:46:00,66.8,66.5,29.88,ENE,58,3.0,9.0,99,0.99,,,1.41,Wunderground v.1.15,2013-06-27 03:46:00,
2013-06-26 23:48:00,66.9,66.6,29.87,ENE,61,4.0,9.0,99,0.58,,,1.45,Wunderground v.1.15,2013-06-27 03:48:00,
2013-06-26 23:49:00,66.9,66.6,29.87,ENE,74,4.0,4.0,99,0.49,,,1.46,Wunderground v.1.15,2013-06-27 03:49:00,
2013-06-26 23:52:00,67.0,66.7,29.90,NW,321,4.0,9.0,99,0.70,,,1.48,Wunderground v.1.15,2013-06-27 03:52:00,
2013-06-26 23:54:00,67.0,66.7,29.90,NNW,331,3.0,9.0,99,3.60,,,1.55,Wunderground v.1.15,2013-06-27 03:54:00,
2013-06-26 23:58:00,67.0,66.7,29.90,NE,50,2.0,9.0,99,1.15,,,1.72,Wunderground v.1.15,2013-06-27 03:58:00,